Regional Weather Roundup
Issued by NWS

Home | Current Version | Previous Version | Text Only | Print | Product List | Glossary On
Versions: 1 2 3 4 5 6 7 8 9 10 11 12 13 14 15 16 17 18 19 20 21 22 23 24 25 26 27 28 29 30 31 32 33 34 35 36 37 38 39 40 41 42 43 44 45 46 47 48 49 50
000
ASUS43 KOAX 230310
RWRNE

WEATHER ROUNDUP FOR NEBRASKA
NATIONAL WEATHER SERVICE OMAHA NE
900 PM CST THU FEB 22 2018

NOTES: SATELLITE DATA IS BEING USED TO AUGMENT CLOUD COVER ABOVE
       12000 FEET.
       "FAIR" INDICATES FEW OR NO CLOUDS BELOW 12,000 FEET WITH NO
       SIGNIFICANT WEATHER AND/OR OBSTRUCTIONS TO VISIBILITY.


NEZ001>004-019>022-054>056-230400-
NEBRASKA PANHANDLE

CITY           SKY/WX    TMP DP  RH WIND       PRES   REMARKS
SCOTTSBLUFF    PTCLDY    14  11  87 NE6       30.05R WCI   5
ALLIANCE       PTCLDY    10   9  95 W3        30.04R
CHADRON        PTCLDY     3  -1  83 CALM      30.08R
GORDON         CLOUDY    16  14  89 W6        30.04S WCI   8
KIMBALL        PTCLDY    14  10  85 W9        30.03R WCI   2
SIDNEY         CLOUDY    18  13  80 W8        30.04R WCI   8
$$

NEZ057>060-069>072-079>082-230400-
SOUTHWEST NEBRASKA

CITY           SKY/WX    TMP DP  RH WIND       PRES   REMARKS
NORTH PLATTE   CLOUDY    22  16  78 SW3       30.11R
IMPERIAL       CLOUDY    21  18  88 S3        30.09R
LEXINGTON      CLOUDY    26  23  89 W3        30.14R
MCCOOK         CLOUDY    23  22  96 CALM      30.12R
OGALLALA       CLOUDY    20  18  89 CALM      30.09R
$$

NEZ005>010-023>029-035>040-094-230400-
NORTH CENTRAL NEBRASKA

CITY           SKY/WX    TMP DP  RH WIND       PRES   REMARKS
VALENTINE      CLOUDY    17  13  84 W6        30.09S WCI   9
AINSWORTH      CLOUDY    21  20  96 SW6       30.09S WCI  14
BROKEN BOW     CLOUDY    22  18  85 SW3       30.10F
O`NEILL        CLOUDY    22  21  96 CALM      30.13S
ORD            CLOUDY    23  20  88 CALM      30.13S FOG
THEDFORD         N/A     20  18  89 SW5       30.09S WCI  14
$$

NEZ041-046>049-061>064-073>077-083>087-230400-
SOUTH CENTRAL NEBRASKA

CITY           SKY/WX    TMP DP  RH WIND       PRES   REMARKS
GRAND ISLAND   CLOUDY    26  24  92 CALM      30.16F FOG
AURORA         CLOUDY    26  25  96 CALM      30.16F FOG
HASTINGS       CLOUDY    26  24  92 CALM      30.15F
HEBRON         CLOUDY    31  30  97 W5        30.18R FOG     WCI  26
HOLDREGE       CLOUDY    25  24  99 W5        30.14S WCI  19
KEARNEY        CLOUDY    25  23  92 W6        30.16S WCI  18
YORK           CLOUDY    27  27 100 CALM      30.18S
$$

NEZ011>018-030>034-042>045-230400-
NORTHEAST NEBRASKA

CITY           SKY/WX    TMP DP  RH WIND       PRES   REMARKS
NORFOLK        LGT SNOW  24  24 100 SW5       30.17R VSB 1   WCI  18
ALBION         LGT SNOW  25  23  93 CALM      30.16S
BLAIR          MIX PCPN  31  30  96 CALM      30.17S
COLUMBUS       LGT SNOW  26  24  92 W3        30.20R FOG
FREMONT        LGT SNOW  29  29 100 CALM      30.19S
TEKAMAH        MIX PCPN  29  28  96 SW3       30.20S FOG
WAYNE          LGT SNOW  26  25  96 CALM      30.18R
$$

NEZ050>053-065>068-078-088>093-230400-
SOUTHEAST NEBRASKA

CITY           SKY/WX    TMP DP  RH WIND       PRES   REMARKS
LINCOLN        CLOUDY    30  29  96 W5        30.20R FOG     WCI  25
OMAHA EPPLEY   FRZ DRZL  32  30  92 SW3       30.19F FOG
BEATRICE       MIX PCPN  32  32  99 SW3       30.17S
FALLS CITY     FRZ RAIN  32  31  96 CALM      30.19S FOG
NEBRASKA CITY  MIX PCPN  32  32 100 CALM      30.18F
PLATTSMOUTH    MIX PCPN  31  31 100 S3        30.18S
$$

NEZ044-045-051>053-067-230400-
OMAHA AREA

CITY           SKY/WX    TMP DP  RH WIND       PRES   REMARKS
OMAHA EPPLEY   FRZ DRZL  32  30  92 SW3       30.19F FOG
BLAIR          MIX PCPN  31  30  96 CALM      30.17S
FREMONT        LGT SNOW  29  29 100 CALM      30.19S
MILLARD        DRIZZLE   32  31  94 SW3       30.19S
OFFUTT AFB     FRZ RAIN  31  31  98 CALM      30.18F
PLATTSMOUTH    MIX PCPN  31  31 100 S3        30.18S
WAHOO          LGT SNOW  31  29  94 SW3       30.19S
$$



USA.gov is the U.S. government's official web portal to all federal, state and local government web resources and services.